Regional Weather Roundup
Issued by NWS Cleveland, OH

Home | Current Version | Previous Version | Graphics & Text | Print | Product List | Glossary On
Versions: 1 2 3 4 5 6 7 8 9 10 11 12 13 14 15 16 17 18 19 20 21 22 23 24 25 26 27 28 29 30 31 32 33 34 35 36 37 38 39 40 41 42 43 44 45 46 47 48 49 50
000
ASUS41 KCLE 240300
RWRCLE
OHIO REGIONAL WEATHER ROUNDUP
NATIONAL WEATHER SERVICE WILMINGTON, OH
1100 PM EDT MON MAY 23 2016

NOTE: "FAIR" INDICATES FEW OR NO CLOUDS BELOW 12,000 FEET WITH NO
SIGNIFICANT WEATHER AND/OR OBSTRUCTIONS TO VISIBILITY.

OHZ001>008-015>018-024>027-034-035-043-044-240400-
   NORTHWEST OHIO

CITY           SKY/WX    TMP DP  RH WIND       PRES   REMARKS
DEFIANCE       FAIR      59  46  62 CALM      30.02
FINDLAY        FAIR      62  46  55 CALM      30.02R
TOLEDO EXPRESS FAIR      57  48  72 CALM      30.02R
TOLEDO EXEC    FAIR      62  48  60 SE3       30.03R
LIMA           FAIR      62  47  57 SE5       30.03R
$$

OHZ009>014-019>023-028>033-038-089-240400-
   NORTHEAST OHIO

CITY           SKY/WX    TMP DP  RH WIND       PRES   REMARKS
CLE-HOPKINS    FAIR      63  47  55 CALM      30.05R
CLE-LAKEFRONT  FAIR      64  49  57 S3        30.02R
CUY CO. ARPT   CLEAR     55  50  82 CALM      30.04R
LORAIN-ELYRIA  FAIR      58  47  66 CALM      30.04R
ASHTABULA      FAIR      52  47  83 CALM      30.03S
AKRON-CANTON   FAIR      61  45  55 N5        30.04R
WOOSTER        NOT AVBL
MANSFIELD      FAIR      62  48  60 CALM      30.05R
YOUNGSTOWN     FAIR      58  46  64 CALM      30.04R
$$

OHZ042-051>053-060>062-070>072-077>081-240400-
  SOUTHWEST OHIO

CITY           SKY/WX    TMP DP  RH WIND       PRES   REMARKS
CINC-COVINGTON FAIR      61  50  67 S3        30.04R
CINC-LUNKEN    FAIR      58  54  86 CALM      30.04R
HAMILTON       FAIR      56  52  86 CALM      30.04R
DAYTON         NOT AVBL
WRIGHT-PAT AFB NOT AVBL
DAYTON GENERAL FAIR      64  46  52 SE3       30.04R
WILMINGTON     FAIR      60  51  72 CALM      30.05R
$$

OHZ036-037-039>041-045>050-054>059-063>069-073>076-082>088-240400-
  CENTRAL AND SOUTHEAST OHIO

CITY           SKY/WX    TMP DP  RH WIND       PRES   REMARKS
COLUMBUS       FAIR      63  51  65 CALM      30.03R
OSU AIRPORT    FAIR      60  50  69 W3        30.04R
BOLTON FIELD   NOT AVBL
RICKENBACK AFB NOT AVBL
NEWARK         FAIR      59  53  80 CALM      30.03R
MARION         FAIR      63  50  62 NE3       30.04R
LANCASTER      FAIR      56  51  84 CALM      30.04R
ZANESVILLE     FAIR      62  52  69 CALM      30.03R
NEW PHILLY     FAIR      62  53  72 CALM      30.04R
$$



USA.gov is the U.S. government's official web portal to all federal, state and local government web resources and services.